Time,TemperatureF,DewpointF,PressureIn,WindDirection,WindDirectionDegrees,WindSpeedMPH,WindSpeedGustMPH,Humidity,HourlyPrecipIn,Conditions,Clouds,dailyrainin,SoftwareType,DateUTC
2013-05-06 00:01:00,53.2,35.6,29.50,West,270,0.0,0.0,51,0.00,,,0.00,WSDL version 420,2013-05-06 05:01:00,
2013-05-06 00:07:00,53.2,35.7,29.50,West,270,0.0,0.0,52,0.00,,,0.00,WSDL version 420,2013-05-06 05:07:00,
2013-05-06 00:13:00,53.3,35.9,29.50,West,270,0.0,0.0,52,0.00,,,0.00,WSDL version 420,2013-05-06 05:13:00,
2013-05-06 00:19:00,53.3,36.2,29.50,West,270,2.4,4.0,52,0.00,,,0.00,WSDL version 420,2013-05-06 05:19:00,
2013-05-06 00:25:00,53.4,36.3,29.50,West,263,0.0,4.0,52,0.00,,,0.00,WSDL version 420,2013-05-06 05:25:00,
2013-05-06 00:31:00,53.4,36.3,29.50,West,270,0.0,0.0,52,0.00,,,0.00,WSDL version 420,2013-05-06 05:31:00,
2013-05-06 00:37:00,53.4,36.5,29.50,West,270,0.0,0.0,52,0.00,,,0.00,WSDL version 420,2013-05-06 05:37:00,
2013-05-06 00:43:00,53.5,36.3,29.50,West,270,0.0,0.0,52,0.00,,,0.00,WSDL version 420,2013-05-06 05:43:00,
2013-05-06 00:49:00,53.6,36.1,29.50,West,270,0.0,0.0,51,0.00,,,0.00,WSDL version 420,2013-05-06 05:49:00,
2013-05-06 00:55:00,53.6,35.9,29.50,West,270,0.0,0.0,51,0.00,,,0.00,WSDL version 420,2013-05-06 05:55:00,
2013-05-06 01:01:00,53.6,35.9,29.50,WNW,293,0.0,0.0,51,0.00,,,0.00,WSDL version 420,2013-05-06 06:01:00,
2013-05-06 01:07:00,53.6,36.0,29.50,West,270,0.0,0.0,51,0.00,,,0.00,WSDL version 420,2013-05-06 06:07:00,
2013-05-06 01:13:00,53.6,36.0,29.50,West,270,0.0,0.0,52,0.00,,,0.00,WSDL version 420,2013-05-06 06:13:00,
2013-05-06 01:19:00,53.6,36.1,29.50,NW,315,0.0,0.0,51,0.00,,,0.00,WSDL version 420,2013-05-06 06:19:00,
2013-05-06 01:25:00,53.8,36.1,29.50,WSW,248,0.0,0.0,51,0.00,,,0.00,WSDL version 420,2013-05-06 06:25:00,
2013-05-06 01:31:00,53.7,36.0,29.50,West,270,0.0,0.0,51,0.00,,,0.00,WSDL version 420,2013-05-06 06:31:00,
2013-05-06 01:37:00,53.8,36.3,29.50,West,270,0.0,0.0,52,0.00,,,0.00,WSDL version 420,2013-05-06 06:37:00,
2013-05-06 01:43:00,53.8,36.1,29.50,West,270,0.0,0.0,51,0.00,,,0.00,WSDL version 420,2013-05-06 06:43:00,
2013-05-06 01:49:00,53.8,36.1,29.50,West,270,0.0,0.0,51,0.00,,,0.00,WSDL version 420,2013-05-06 06:49:00,
2013-05-06 01:55:00,53.8,36.1,29.50,West,266,0.0,0.0,51,0.00,,,0.00,WSDL version 420,2013-05-06 06:55:00,
2013-05-06 02:01:00,53.8,36.1,29.47,West,270,0.0,0.0,51,0.00,,,0.00,WSDL version 420,2013-05-06 07:01:00,
2013-05-06 02:07:00,53.8,36.1,29.47,West,270,0.0,0.0,51,0.00,,,0.00,WSDL version 420,2013-05-06 07:07:00,
2013-05-06 02:13:00,53.8,36.1,29.47,West,270,0.0,0.0,51,0.00,,,0.00,WSDL version 420,2013-05-06 07:13:00,
2013-05-06 02:19:00,53.8,36.2,29.47,West,270,0.0,0.0,52,0.00,,,0.00,WSDL version 420,2013-05-06 07:19:00,
2013-05-06 02:25:00,53.8,36.3,29.47,NW,315,0.0,0.0,51,0.00,,,0.00,WSDL version 420,2013-05-06 07:25:00,
2013-05-06 02:31:00,53.8,36.1,29.47,NW,315,0.0,0.0,51,0.00,,,0.00,WSDL version 420,2013-05-06 07:31:00,
2013-05-06 02:37:00,53.8,36.2,29.47,NW,315,0.0,0.0,52,0.00,,,0.00,WSDL version 420,2013-05-06 07:37:00,
2013-05-06 02:43:00,53.8,36.6,29.47,West,270,0.0,0.0,52,0.00,,,0.00,WSDL version 420,2013-05-06 07:43:00,
2013-05-06 02:49:00,53.8,36.2,29.47,West,270,0.0,0.0,52,0.00,,,0.00,WSDL version 420,2013-05-06 07:49:00,
2013-05-06 02:55:00,53.9,36.7,29.47,West,270,0.0,0.0,52,0.00,,,0.00,WSDL version 420,2013-05-06 07:55:00,
2013-05-06 03:01:00,53.9,36.7,29.47,West,270,0.0,0.0,52,0.00,,,0.00,WSDL version 420,2013-05-06 08:01:00,
2013-05-06 03:07:00,54.0,36.8,29.47,West,270,0.0,0.0,52,0.00,,,0.00,WSDL version 420,2013-05-06 08:07:00,
2013-05-06 03:13:00,54.0,36.8,29.47,West,270,0.0,0.0,52,0.00,,,0.00,WSDL version 420,2013-05-06 08:13:00,
2013-05-06 03:19:00,54.0,36.8,29.47,West,270,0.0,0.0,52,0.00,,,0.00,WSDL version 420,2013-05-06 08:19:00,
2013-05-06 03:25:00,54.0,36.6,29.47,West,270,0.0,0.0,52,0.00,,,0.00,WSDL version 420,2013-05-06 08:25:00,
2013-05-06 03:31:00,54.0,36.8,29.47,West,270,0.0,0.0,52,0.00,,,0.00,WSDL version 420,2013-05-06 08:31:00,
2013-05-06 03:37:00,54.0,36.9,29.47,West,270,0.0,0.0,52,0.00,,,0.00,WSDL version 420,2013-05-06 08:37:00,
2013-05-06 03:43:00,54.0,36.8,29.47,West,270,0.0,0.0,52,0.00,,,0.00,WSDL version 420,2013-05-06 08:43:00,
2013-05-06 03:49:00,54.0,36.8,29.47,West,270,0.0,0.0,52,0.00,,,0.00,WSDL version 420,2013-05-06 08:49:00,
2013-05-06 03:55:00,54.1,37.0,29.47,West,270,0.0,0.0,53,0.00,,,0.00,WSDL version 420,2013-05-06 08:55:00,
2013-05-06 04:01:00,54.0,37.3,29.47,West,270,0.0,0.0,53,0.00,,,0.00,WSDL version 420,2013-05-06 09:01:00,
2013-05-06 04:07:00,54.1,37.1,29.47,West,270,0.0,0.0,53,0.00,,,0.00,WSDL version 420,2013-05-06 09:07:00,
2013-05-06 04:13:00,54.0,37.3,29.47,West,270,0.0,0.0,53,0.00,,,0.00,WSDL version 420,2013-05-06 09:13:00,
2013-05-06 04:19:00,54.0,37.2,29.50,West,270,0.0,0.0,53,0.00,,,0.00,WSDL version 420,2013-05-06 09:19:00,
2013-05-06 04:25:00,54.0,37.1,29.50,West,270,0.0,0.0,52,0.00,,,0.00,WSDL version 420,2013-05-06 09:25:00,
2013-05-06 04:31:00,54.1,37.3,29.47,West,270,0.0,0.0,53,0.00,,,0.00,WSDL version 420,2013-05-06 09:31:00,
2013-05-06 04:37:00,54.1,37.4,29.47,West,270,0.0,0.0,53,0.00,,,0.00,WSDL version 420,2013-05-06 09:37:00,
2013-05-06 04:43:00,54.0,37.2,29.47,West,270,0.0,0.0,53,0.00,,,0.00,WSDL version 420,2013-05-06 09:43:00,
2013-05-06 04:49:00,54.0,37.2,29.47,West,270,0.0,0.0,53,0.00,,,0.00,WSDL version 420,2013-05-06 09:49:00,
2013-05-06 04:55:00,54.0,37.3,29.47,West,270,0.0,0.0,54,0.00,,,0.00,WSDL version 420,2013-05-06 09:55:00,
2013-05-06 05:01:00,54.0,37.3,29.47,NW,315,0.0,0.0,53,0.00,,,0.00,WSDL version 420,2013-05-06 10:01:00,
2013-05-06 05:07:00,54.0,37.2,29.47,NW,315,0.0,0.0,53,0.00,,,0.00,WSDL version 420,2013-05-06 10:07:00,
2013-05-06 05:13:00,54.0,37.7,29.47,NW,315,0.0,0.0,54,0.00,,,0.00,WSDL version 420,2013-05-06 10:13:00,
2013-05-06 05:19:00,54.0,37.7,29.47,NW,315,0.0,0.0,54,0.00,,,0.00,WSDL version 420,2013-05-06 10:19:00,
2013-05-06 05:25:00,54.0,37.7,29.47,NW,315,0.0,0.0,54,0.00,,,0.00,WSDL version 420,2013-05-06 10:25:00,
2013-05-06 05:31:00,54.0,37.8,29.47,NW,315,0.0,0.0,55,0.00,,,0.00,WSDL version 420,2013-05-06 10:31:00,
2013-05-06 05:37:00,54.0,37.8,29.47,NW,315,0.0,0.0,54,0.00,,,0.00,WSDL version 420,2013-05-06 10:37:00,
2013-05-06 05:43:00,54.0,38.2,29.47,NW,315,0.0,0.0,55,0.00,,,0.00,WSDL version 420,2013-05-06 10:43:00,
2013-05-06 05:49:00,54.1,38.3,29.47,NW,315,0.0,0.0,55,0.00,,,0.00,WSDL version 420,2013-05-06 10:49:00,
2013-05-06 05:55:00,54.1,38.3,29.47,NW,315,0.0,0.0,55,0.00,,,0.00,WSDL version 420,2013-05-06 10:55:00,
2013-05-06 06:01:00,54.1,38.3,29.47,NW,315,0.0,0.0,55,0.00,,,0.00,WSDL version 420,2013-05-06 11:01:00,
2013-05-06 06:07:00,54.1,38.3,29.47,NW,315,0.0,0.0,55,0.00,,,0.00,WSDL version 420,2013-05-06 11:07:00,
2013-05-06 06:13:00,54.1,38.5,29.47,WNW,297,0.0,0.0,56,0.00,,,0.00,WSDL version 420,2013-05-06 11:13:00,
2013-05-06 06:19:00,54.1,38.3,29.47,West,270,0.0,0.0,55,0.00,,,0.00,WSDL version 420,2013-05-06 11:19:00,
2013-05-06 06:25:00,54.2,38.8,29.47,West,270,0.0,0.0,56,0.00,,,0.00,WSDL version 420,2013-05-06 11:25:00,
2013-05-06 06:31:00,54.3,39.1,29.47,West,270,0.0,0.0,56,0.00,,,0.00,WSDL version 420,2013-05-06 11:31:00,
2013-05-06 06:37:00,54.3,39.4,29.47,West,270,0.0,0.0,57,0.00,,,0.00,WSDL version 420,2013-05-06 11:37:00,
2013-05-06 06:43:00,54.3,39.4,29.47,West,270,0.0,0.0,57,0.00,,,0.00,WSDL version 420,2013-05-06 11:43:00,
2013-05-06 06:49:00,54.5,39.6,29.47,West,270,0.0,0.0,57,0.00,,,0.00,WSDL version 420,2013-05-06 11:49:00,
2013-05-06 06:55:00,54.5,39.6,29.47,West,270,0.0,1.3,57,0.00,,,0.00,WSDL version 420,2013-05-06 11:55:00,
2013-05-06 07:01:00,54.5,39.8,29.50,West,270,0.0,1.3,58,0.00,,,0.00,WSDL version 420,2013-05-06 12:01:00,
2013-05-06 07:07:00,54.6,40.1,29.50,West,270,0.0,0.0,58,0.00,,,0.00,WSDL version 420,2013-05-06 12:07:00,
2013-05-06 07:13:00,54.7,40.2,29.50,West,270,0.0,0.0,58,0.00,,,0.00,WSDL version 420,2013-05-06 12:13:00,
2013-05-06 07:19:00,54.9,40.4,29.50,West,270,0.0,0.0,58,0.00,,,0.00,WSDL version 420,2013-05-06 12:19:00,
2013-05-06 07:25:00,55.0,40.5,29.50,North,-999,-999.0,-999.0,58,0.00,,,0.00,WSDL version 420,2013-05-06 12:25:00,
2013-05-06 07:31:00,55.2,40.6,29.50,West,270,0.0,0.0,58,0.00,,,0.00,WSDL version 420,2013-05-06 12:31:00,
2013-05-06 07:37:00,55.2,40.4,29.50,West,270,0.0,0.0,57,0.00,,,0.00,WSDL version 420,2013-05-06 12:37:00,
2013-05-06 07:43:00,55.2,40.5,29.50,West,270,0.0,0.0,57,0.00,,,0.00,WSDL version 420,2013-05-06 12:43:00,
2013-05-06 07:49:00,55.4,40.2,29.50,West,270,0.0,0.0,57,0.00,,,0.00,WSDL version 420,2013-05-06 12:49:00,
2013-05-06 07:55:00,55.4,40.4,29.50,West,270,0.0,0.0,57,0.00,,,0.00,WSDL version 420,2013-05-06 12:55:00,
2013-05-06 08:01:00,55.4,40.2,29.50,North,-999,-999.0,-999.0,57,0.00,,,0.00,WSDL version 420,2013-05-06 13:01:00,
2013-05-06 08:07:00,55.4,40.3,29.50,West,270,0.0,0.0,57,0.00,,,0.00,WSDL version 420,2013-05-06 13:07:00,
2013-05-06 08:13:00,55.4,40.5,29.50,West,270,0.0,0.0,58,0.00,,,0.00,WSDL version 420,2013-05-06 13:13:00,
2013-05-06 08:19:00,55.4,40.8,29.50,West,270,0.0,0.0,58,0.00,,,0.00,WSDL version 420,2013-05-06 13:19:00,
2013-05-06 08:25:00,55.4,41.0,29.50,West,270,0.0,0.0,58,0.00,,,0.00,WSDL version 420,2013-05-06 13:25:00,
2013-05-06 08:31:00,55.5,41.1,29.53,West,270,0.0,0.0,59,0.00,,,0.00,WSDL version 420,2013-05-06 13:31:00,
2013-05-06 08:37:00,55.5,41.5,29.53,West,270,0.0,0.0,60,0.00,,,0.00,WSDL version 420,2013-05-06 13:37:00,
2013-05-06 08:43:00,55.6,42.0,29.53,NW,315,0.0,0.0,60,0.00,,,0.00,WSDL version 420,2013-05-06 13:43:00,
2013-05-06 08:49:00,55.6,42.1,29.50,NW,315,0.0,0.0,61,0.00,,,0.00,WSDL version 420,2013-05-06 13:49:00,
2013-05-06 08:55:00,55.7,42.3,29.50,NW,315,0.0,0.0,61,0.00,,,0.00,WSDL version 420,2013-05-06 13:55:00,
2013-05-06 09:01:00,55.9,42.6,29.50,NW,315,0.0,0.0,61,0.00,,,0.00,WSDL version 420,2013-05-06 14:01:00,
2013-05-06 09:07:00,56.0,43.1,29.50,NW,315,0.0,0.0,62,0.00,,,0.00,WSDL version 420,2013-05-06 14:07:00,
2013-05-06 09:13:00,56.3,43.8,29.50,NW,315,0.0,0.0,63,0.00,,,0.00,WSDL version 420,2013-05-06 14:13:00,
2013-05-06 09:19:00,56.3,43.3,29.53,NW,315,0.0,0.0,61,0.00,,,0.00,WSDL version 420,2013-05-06 14:19:00,
2013-05-06 09:25:00,56.5,43.1,29.53,NW,315,0.0,0.0,60,0.00,,,0.00,WSDL version 420,2013-05-06 14:25:00,
2013-05-06 09:31:00,56.5,42.9,29.50,NW,326,0.0,0.0,60,0.00,,,0.00,WSDL version 420,2013-05-06 14:31:00,
2013-05-06 09:37:00,56.5,42.3,29.50,NW,315,1.2,2.9,59,0.00,,,0.00,WSDL version 420,2013-05-06 14:37:00,
2013-05-06 09:43:00,56.8,42.8,29.50,North,-999,-999.0,-999.0,60,0.00,,,0.00,WSDL version 420,2013-05-06 14:43:00,
2013-05-06 09:49:00,57.5,43.7,29.50,NNW,330,0.0,1.3,59,0.01,,,0.01,WSDL version 420,2013-05-06 14:49:00,
2013-05-06 09:55:00,57.8,42.5,29.50,West,279,0.0,3.1,56,0.01,,,0.01,WSDL version 420,2013-05-06 14:55:00,
2013-05-06 10:01:00,58.0,42.0,29.50,NW,308,2.0,3.4,55,0.01,,,0.01,WSDL version 420,2013-05-06 15:01:00,
2013-05-06 10:07:00,58.3,40.3,29.50,NW,315,1.1,3.1,50,0.01,,,0.01,WSDL version 420,2013-05-06 15:07:00,
2013-05-06 10:13:00,58.6,39.9,29.50,NW,315,2.4,3.4,49,0.01,,,0.01,WSDL version 420,2013-05-06 15:13:00,
2013-05-06 10:19:00,58.8,39.5,29.53,NNW,338,1.6,3.4,47,0.01,,,0.01,WSDL version 420,2013-05-06 15:19:00,
2013-05-06 10:25:00,59.1,38.3,29.53,NW,315,2.5,4.3,45,0.01,,,0.01,WSDL version 420,2013-05-06 15:25:00,
2013-05-06 10:31:00,59.5,38.8,29.53,NW,315,1.9,3.1,46,0.01,,,0.01,WSDL version 420,2013-05-06 15:31:00,
2013-05-06 10:37:00,59.8,36.1,29.53,NW,315,3.1,6.3,41,0.01,,,0.01,WSDL version 420,2013-05-06 15:37:00,
2013-05-06 10:43:00,59.4,35.1,29.53,NW,323,1.3,4.7,41,0.01,,,0.01,WSDL version 420,2013-05-06 15:43:00,
2013-05-06 10:49:00,59.1,36.3,29.53,North,360,0.9,2.7,43,0.00,,,0.01,WSDL version 420,2013-05-06 15:49:00,
2013-05-06 10:55:00,59.2,37.2,29.53,North,360,1.1,2.5,44,0.00,,,0.01,WSDL version 420,2013-05-06 15:55:00,
2013-05-06 11:01:00,59.4,37.5,29.53,North,0,0.0,3.4,44,0.00,,,0.01,WSDL version 420,2013-05-06 16:01:00,
2013-05-06 11:07:00,59.5,37.5,29.53,NW,315,0.4,3.4,44,0.00,,,0.01,WSDL version 420,2013-05-06 16:07:00,
2013-05-06 11:13:00,59.4,36.9,29.53,NNW,338,2.1,2.7,43,0.00,,,0.01,WSDL version 420,2013-05-06 16:13:00,
2013-05-06 11:19:00,59.0,36.2,29.53,NE,45,2.5,4.0,43,0.00,,,0.01,WSDL version 420,2013-05-06 16:19:00,
2013-05-06 11:25:00,58.5,36.5,29.53,NNW,338,1.6,3.6,44,0.00,,,0.01,WSDL version 420,2013-05-06 16:25:00,
2013-05-06 11:31:00,58.1,36.8,29.53,North,360,0.7,3.6,45,0.00,,,0.01,WSDL version 420,2013-05-06 16:31:00,
2013-05-06 11:37:00,58.0,37.0,29.53,NW,315,0.0,2.7,46,0.00,,,0.01,WSDL version 420,2013-05-06 16:37:00,
2013-05-06 11:43:00,58.1,37.9,29.53,NW,315,0.0,0.0,47,0.00,,,0.01,WSDL version 420,2013-05-06 16:43:00,
2013-05-06 11:49:00,58.1,37.8,29.53,NW,315,0.0,0.0,47,0.00,,,0.01,WSDL version 420,2013-05-06 16:49:00,
2013-05-06 11:55:00,58.6,38.5,29.53,SE,135,1.1,1.1,47,0.00,,,0.01,WSDL version 420,2013-05-06 16:55:00,
2013-05-06 12:01:00,58.9,38.4,29.53,NW,315,3.1,3.1,46,0.00,,,0.01,WSDL version 420,2013-05-06 17:01:00,
2013-05-06 12:07:00,58.9,37.5,29.53,NW,315,0.4,4.0,45,0.00,,,0.01,WSDL version 420,2013-05-06 17:07:00,
2013-05-06 12:13:00,58.6,37.0,29.53,NW,315,0.0,3.1,45,0.00,,,0.01,WSDL version 420,2013-05-06 17:13:00,
2013-05-06 12:19:00,58.5,37.2,29.53,NW,315,2.0,2.2,45,0.00,,,0.01,WSDL version 420,2013-05-06 17:19:00,
2013-05-06 12:25:00,58.5,37.2,29.53,North,360,1.3,2.7,45,0.00,,,0.01,WSDL version 420,2013-05-06 17:25:00,
2013-05-06 12:31:00,58.5,37.0,29.53,NW,315,1.2,3.1,45,0.00,,,0.01,WSDL version 420,2013-05-06 17:31:00,
2013-05-06 12:37:00,58.8,36.2,29.53,NW,315,1.3,4.0,43,0.00,,,0.01,WSDL version 420,2013-05-06 17:37:00,
2013-05-06 12:43:00,59.5,35.1,29.53,North,-999,-999.0,-999.0,38,0.00,,,0.01,WSDL version 420,2013-05-06 17:43:00,
2013-05-06 12:49:00,60.8,35.3,29.53,NNW,338,1.3,3.1,38,0.00,,,0.01,WSDL version 420,2013-05-06 17:49:00,
2013-05-06 12:55:00,61.1,34.4,29.53,NW,315,1.6,4.0,35,0.00,,,0.01,WSDL version 420,2013-05-06 17:55:00,
2013-05-06 13:01:00,61.0,34.5,29.53,North,-999,-999.0,-999.0,37,0.00,,,0.01,WSDL version 420,2013-05-06 18:01:00,
2013-05-06 13:07:00,60.9,33.8,29.53,NW,315,2.4,3.6,35,0.00,,,0.01,WSDL version 420,2013-05-06 18:07:00,
2013-05-06 13:13:00,60.9,33.8,29.53,West,270,1.1,3.6,36,0.00,,,0.01,WSDL version 420,2013-05-06 18:13:00,
2013-05-06 13:19:00,60.7,34.1,29.53,NW,315,1.6,3.1,37,0.00,,,0.01,WSDL version 420,2013-05-06 18:19:00,
2013-05-06 13:25:00,60.6,34.0,29.53,NW,315,1.9,3.4,36,0.00,,,0.01,WSDL version 420,2013-05-06 18:25:00,
2013-05-06 13:31:00,60.5,34.1,29.53,North,353,0.5,3.4,37,0.00,,,0.01,WSDL version 420,2013-05-06 18:31:00,
2013-05-06 13:37:00,60.9,33.9,29.53,NW,315,1.8,4.0,36,0.00,,,0.01,WSDL version 420,2013-05-06 18:37:00,
2013-05-06 13:43:00,61.4,33.7,29.53,NW,323,0.7,4.3,35,0.00,,,0.01,WSDL version 420,2013-05-06 18:43:00,
2013-05-06 13:49:00,61.1,33.3,29.53,West,270,2.0,4.3,35,0.00,,,0.01,WSDL version 420,2013-05-06 18:49:00,
2013-05-06 13:55:00,60.7,33.3,29.53,NW,315,1.0,3.1,36,0.00,,,0.01,WSDL version 420,2013-05-06 18:55:00,
2013-05-06 14:01:00,60.8,33.7,29.53,NW,315,0.0,3.1,36,0.00,,,0.01,WSDL version 420,2013-05-06 19:01:00,
2013-05-06 14:07:00,61.0,33.9,29.53,NW,315,2.2,2.7,36,0.00,,,0.01,WSDL version 420,2013-05-06 19:07:00,
2013-05-06 14:13:00,61.0,33.7,29.53,NW,315,0.3,2.7,36,0.00,,,0.01,WSDL version 420,2013-05-06 19:13:00,
2013-05-06 14:19:00,61.0,34.2,29.53,NW,315,3.7,3.7,36,0.00,,,0.01,WSDL version 420,2013-05-06 19:19:00,
2013-05-06 14:25:00,61.0,33.9,29.53,NW,315,2.3,3.8,36,0.00,,,0.01,WSDL version 420,2013-05-06 19:25:00,
2013-05-06 14:31:00,61.3,34.1,29.53,NW,315,1.8,3.4,36,0.00,,,0.01,WSDL version 420,2013-05-06 19:31:00,
2013-05-06 14:37:00,61.3,33.6,29.53,NW,315,2.2,4.0,36,0.00,,,0.01,WSDL version 420,2013-05-06 19:37:00,
2013-05-06 14:43:00,61.4,34.2,29.53,NW,315,0.0,4.0,36,0.00,,,0.01,WSDL version 420,2013-05-06 19:43:00,
2013-05-06 14:49:00,61.8,34.1,29.53,WNW,300,2.5,4.9,34,0.00,,,0.01,WSDL version 420,2013-05-06 19:49:00,
2013-05-06 14:55:00,62.0,34.0,29.53,NW,304,2.3,4.9,35,0.00,,,0.01,WSDL version 420,2013-05-06 19:55:00,
2013-05-06 15:01:00,62.3,34.3,29.53,NW,315,1.8,3.8,35,0.00,,,0.01,WSDL version 420,2013-05-06 20:01:00,
2013-05-06 15:07:00,62.4,34.4,29.53,NNW,345,1.8,3.4,35,0.00,,,0.01,WSDL version 420,2013-05-06 20:07:00,
2013-05-06 15:13:00,62.5,34.2,29.53,NW,315,2.7,3.4,34,0.00,,,0.01,WSDL version 420,2013-05-06 20:13:00,
2013-05-06 15:19:00,62.5,33.8,29.53,NW,315,2.9,3.8,34,0.00,,,0.01,WSDL version 420,2013-05-06 20:19:00,
2013-05-06 15:25:00,62.3,34.1,29.53,NW,315,2.5,3.4,34,0.00,,,0.01,WSDL version 420,2013-05-06 20:25:00,
2013-05-06 15:31:00,62.2,34.0,29.53,NW,315,2.9,3.8,35,0.00,,,0.01,WSDL version 420,2013-05-06 20:31:00,
2013-05-06 15:37:00,62.2,34.3,29.53,North,0,0.0,3.8,35,0.00,,,0.01,WSDL version 420,2013-05-06 20:37:00,
2013-05-06 15:43:00,62.2,34.3,29.53,NW,315,1.6,2.5,35,0.00,,,0.01,WSDL version 420,2013-05-06 20:43:00,
2013-05-06 15:49:00,62.1,34.3,29.50,North,360,1.5,2.9,35,0.00,,,0.01,WSDL version 420,2013-05-06 20:49:00,
2013-05-06 15:55:00,61.9,34.7,29.50,North,360,1.0,2.9,36,0.00,,,0.01,WSDL version 420,2013-05-06 20:55:00,
2013-05-06 16:01:00,61.9,34.7,29.50,NW,315,0.7,3.1,36,0.00,,,0.01,WSDL version 420,2013-05-06 21:01:00,
2013-05-06 16:07:00,62.1,34.8,29.50,NW,315,0.9,3.1,36,0.00,,,0.01,WSDL version 420,2013-05-06 21:07:00,
2013-05-06 16:13:00,62.2,34.9,29.50,NW,315,0.0,1.1,36,0.00,,,0.01,WSDL version 420,2013-05-06 21:13:00,
2013-05-06 16:19:00,62.2,34.7,29.53,NW,315,1.2,2.0,36,0.00,,,0.01,WSDL version 420,2013-05-06 21:19:00,
2013-05-06 16:25:00,62.2,34.6,29.53,NW,315,0.0,2.0,35,0.00,,,0.01,WSDL version 420,2013-05-06 21:25:00,
2013-05-06 16:31:00,62.3,34.8,29.50,NW,315,0.0,2.0,36,0.00,,,0.01,WSDL version 420,2013-05-06 21:31:00,
2013-05-06 16:37:00,62.4,35.0,29.50,North,-999,-999.0,-999.0,36,0.00,,,0.01,WSDL version 420,2013-05-06 21:37:00,
2013-05-06 16:43:00,62.4,35.1,29.50,NNW,338,0.0,1.3,36,0.00,,,0.01,WSDL version 420,2013-05-06 21:43:00,
2013-05-06 16:49:00,62.2,35.4,29.50,NW,315,0.0,2.9,37,0.00,,,0.01,WSDL version 420,2013-05-06 21:49:00,
2013-05-06 16:55:00,62.2,35.0,29.50,North,0,0.0,2.9,36,0.00,,,0.01,WSDL version 420,2013-05-06 21:55:00,
2013-05-06 17:01:00,62.2,35.7,29.53,NW,315,0.0,1.6,37,0.00,,,0.01,WSDL version 420,2013-05-06 22:01:00,
2013-05-06 17:07:00,62.2,35.4,29.53,NW,315,0.0,2.5,36,0.00,,,0.01,WSDL version 420,2013-05-06 22:07:00,
2013-05-06 17:13:00,62.3,35.1,29.53,NW,315,0.0,2.5,36,0.00,,,0.01,WSDL version 420,2013-05-06 22:13:00,
2013-05-06 17:19:00,62.4,35.1,29.53,NW,315,0.0,0.0,36,0.00,,,0.01,WSDL version 420,2013-05-06 22:19:00,
2013-05-06 17:25:00,62.6,35.0,29.53,NW,315,0.0,0.0,36,0.00,,,0.01,WSDL version 420,2013-05-06 22:25:00,
2013-05-06 17:31:00,62.4,35.1,29.53,NW,315,0.0,0.0,36,0.00,,,0.01,WSDL version 420,2013-05-06 22:31:00,
2013-05-06 17:37:00,62.4,35.4,29.53,NW,315,0.0,0.0,37,0.00,,,0.01,WSDL version 420,2013-05-06 22:37:00,
2013-05-06 17:43:00,62.2,35.6,29.53,NW,315,0.0,0.0,37,0.00,,,0.01,WSDL version 420,2013-05-06 22:43:00,
2013-05-06 17:49:00,62.0,35.4,29.53,NW,315,0.0,0.0,37,0.00,,,0.01,WSDL version 420,2013-05-06 22:49:00,
2013-05-06 17:55:00,61.9,35.8,29.53,NW,315,0.0,0.0,38,0.00,,,0.01,WSDL version 420,2013-05-06 22:55:00,
2013-05-06 18:01:00,61.7,35.2,29.53,NW,315,0.0,0.0,37,0.00,,,0.01,WSDL version 420,2013-05-06 23:01:00,
2013-05-06 18:07:00,61.7,36.0,29.53,NW,315,0.0,0.0,39,0.00,,,0.01,WSDL version 420,2013-05-06 23:07:00,
2013-05-06 18:13:00,61.6,36.6,29.53,NW,315,0.0,0.0,40,0.00,,,0.01,WSDL version 420,2013-05-06 23:13:00,
2013-05-06 18:19:00,61.5,37.4,29.53,NW,315,0.0,0.0,41,0.00,,,0.01,WSDL version 420,2013-05-06 23:19:00,
2013-05-06 18:25:00,61.5,37.6,29.53,NW,315,0.0,0.0,41,0.00,,,0.01,WSDL version 420,2013-05-06 23:25:00,
2013-05-06 18:31:00,61.5,37.2,29.53,NW,315,0.0,0.0,41,0.00,,,0.01,WSDL version 420,2013-05-06 23:31:00,
2013-05-06 18:37:00,61.5,37.6,29.53,NW,315,0.0,0.0,41,0.00,,,0.01,WSDL version 420,2013-05-06 23:37:00,
2013-05-06 18:43:00,61.3,37.5,29.53,NW,315,0.0,0.0,41,0.00,,,0.01,WSDL version 420,2013-05-06 23:43:00,
2013-05-06 18:49:00,61.3,37.6,29.53,NW,315,0.0,0.0,42,0.00,,,0.01,WSDL version 420,2013-05-06 23:49:00,
2013-05-06 18:55:00,61.3,37.5,29.53,NW,315,0.0,0.0,41,0.00,,,0.01,WSDL version 420,2013-05-06 23:55:00,
2013-05-06 19:01:00,61.3,37.8,29.53,NW,315,0.0,0.0,42,0.00,,,0.01,WSDL version 420,2013-05-07 00:01:00,
2013-05-06 19:07:00,61.1,38.2,29.53,NW,315,0.0,0.0,42,0.00,,,0.01,WSDL version 420,2013-05-07 00:07:00,
2013-05-06 19:13:00,61.0,38.3,29.53,NW,315,0.0,0.0,43,0.00,,,0.01,WSDL version 420,2013-05-07 00:13:00,
2013-05-06 19:19:00,60.9,38.6,29.53,NW,315,0.0,0.0,44,0.00,,,0.01,WSDL version 420,2013-05-07 00:19:00,
2013-05-06 19:25:00,60.7,38.7,29.53,NW,315,0.0,0.0,44,0.00,,,0.01,WSDL version 420,2013-05-07 00:25:00,
2013-05-06 19:31:00,60.6,38.6,29.53,NW,315,0.0,0.0,44,0.00,,,0.01,WSDL version 420,2013-05-07 00:31:00,
2013-05-06 19:37:00,60.5,39.1,29.53,NW,315,0.0,0.0,45,0.00,,,0.01,WSDL version 420,2013-05-07 00:37:00,
2013-05-06 19:43:00,60.4,39.0,29.53,NW,315,0.0,0.0,45,0.00,,,0.01,WSDL version 420,2013-05-07 00:43:00,
2013-05-06 19:49:00,60.4,39.0,29.53,NW,315,0.0,0.0,45,0.00,,,0.01,WSDL version 420,2013-05-07 00:49:00,
2013-05-06 19:55:00,60.3,38.9,29.53,NW,315,0.0,0.0,45,0.00,,,0.01,WSDL version 420,2013-05-07 00:55:00,
2013-05-06 20:01:00,60.1,39.3,29.56,NW,315,0.0,0.0,46,0.00,,,0.01,WSDL version 420,2013-05-07 01:01:00,
2013-05-06 20:07:00,60.1,39.3,29.56,NW,315,0.0,0.0,46,0.00,,,0.01,WSDL version 420,2013-05-07 01:07:00,
2013-05-06 20:13:00,60.0,39.1,29.56,NW,315,0.0,0.0,46,0.00,,,0.01,WSDL version 420,2013-05-07 01:13:00,
2013-05-06 20:19:00,59.9,39.1,29.56,NW,315,0.0,0.0,46,0.00,,,0.01,WSDL version 420,2013-05-07 01:19:00,
2013-05-06 20:25:00,59.9,39.3,29.56,NW,315,0.0,0.0,47,0.00,,,0.01,WSDL version 420,2013-05-07 01:25:00,
2013-05-06 20:31:00,59.8,39.5,29.56,NW,315,0.0,0.0,47,0.00,,,0.01,WSDL version 420,2013-05-07 01:31:00,
2013-05-06 20:37:00,59.7,39.5,29.56,North,-999,-999.0,-999.0,47,0.00,,,0.01,WSDL version 420,2013-05-07 01:37:00,
2013-05-06 20:43:00,59.6,39.3,29.56,NW,315,0.0,0.0,47,0.00,,,0.01,WSDL version 420,2013-05-07 01:43:00,
2013-05-06 20:49:00,59.4,39.2,29.56,NW,315,0.0,0.0,47,0.00,,,0.01,WSDL version 420,2013-05-07 01:49:00,
2013-05-06 20:55:00,59.3,39.1,29.56,NW,315,0.0,0.0,47,0.00,,,0.01,WSDL version 420,2013-05-07 01:55:00,
2013-05-06 21:01:00,59.2,39.5,29.56,NW,315,0.0,0.0,48,0.00,,,0.01,WSDL version 420,2013-05-07 02:01:00,
2013-05-06 21:07:00,59.2,39.2,29.56,NW,315,0.0,0.0,47,0.00,,,0.01,WSDL version 420,2013-05-07 02:07:00,
2013-05-06 21:13:00,58.8,39.1,29.56,NW,315,0.0,0.0,48,0.00,,,0.01,WSDL version 420,2013-05-07 02:13:00,
2013-05-06 21:19:00,58.5,38.9,29.56,NW,315,0.0,0.0,48,0.00,,,0.01,WSDL version 420,2013-05-07 02:19:00,
2013-05-06 21:25:00,58.5,38.9,29.56,NW,315,0.0,0.0,48,0.00,,,0.01,WSDL version 420,2013-05-07 02:25:00,
2013-05-06 21:31:00,58.3,39.2,29.56,North,0,0.0,0.0,49,0.00,,,0.01,WSDL version 420,2013-05-07 02:31:00,
2013-05-06 21:37:00,58.1,38.7,29.56,NW,315,0.0,0.0,49,0.00,,,0.01,WSDL version 420,2013-05-07 02:37:00,
2013-05-06 21:43:00,57.9,38.6,29.56,NW,315,0.0,0.0,49,0.00,,,0.01,WSDL version 420,2013-05-07 02:43:00,
2013-05-06 21:49:00,57.7,38.4,29.59,NW,315,0.0,0.0,49,0.00,,,0.01,WSDL version 420,2013-05-07 02:49:00,
2013-05-06 21:55:00,57.7,38.7,29.59,NW,315,0.0,0.0,49,0.00,,,0.01,WSDL version 420,2013-05-07 02:55:00,
2013-05-06 22:01:00,57.5,38.5,29.56,NW,315,0.0,0.0,49,0.00,,,0.01,WSDL version 420,2013-05-07 03:01:00,
2013-05-06 22:07:00,57.4,38.4,29.56,NW,315,0.0,0.0,49,0.00,,,0.01,WSDL version 420,2013-05-07 03:07:00,
2013-05-06 22:13:00,57.2,38.2,29.56,NW,315,0.0,0.0,49,0.00,,,0.01,WSDL version 420,2013-05-07 03:13:00,
2013-05-06 22:19:00,57.2,38.2,29.56,NW,315,0.0,0.0,49,0.00,,,0.01,WSDL version 420,2013-05-07 03:19:00,
2013-05-06 22:25:00,57.0,38.1,29.56,NW,315,0.0,0.0,49,0.00,,,0.01,WSDL version 420,2013-05-07 03:25:00,
2013-05-06 22:31:00,56.8,37.9,29.56,NW,315,0.0,0.0,49,0.00,,,0.01,WSDL version 420,2013-05-07 03:31:00,
2013-05-06 22:37:00,56.7,37.9,29.56,NW,315,0.0,0.0,50,0.00,,,0.01,WSDL version 420,2013-05-07 03:37:00,
2013-05-06 22:43:00,56.7,38.3,29.56,NW,315,0.0,0.0,50,0.00,,,0.01,WSDL version 420,2013-05-07 03:43:00,
2013-05-06 22:49:00,56.5,38.3,29.59,NW,315,0.0,0.0,51,0.00,,,0.01,WSDL version 420,2013-05-07 03:49:00,
2013-05-06 22:55:00,56.6,38.7,29.59,NW,315,0.0,0.0,51,0.00,,,0.01,WSDL version 420,2013-05-07 03:55:00,
2013-05-06 23:01:00,56.5,38.6,29.59,NW,315,0.0,0.0,51,0.00,,,0.01,WSDL version 420,2013-05-07 04:01:00,
2013-05-06 23:04:00,56.4,38.6,29.59,NW,315,0.0,0.0,51,0.00,,,0.01,WSDL version 420,2013-05-07 04:04:00,
2013-05-06 23:07:00,56.4,38.5,29.59,NW,315,0.0,0.0,51,0.00,,,0.01,WSDL version 420,2013-05-07 04:07:00,
2013-05-06 23:10:00,56.4,38.5,29.59,NW,315,0.0,0.0,51,0.00,,,0.01,WSDL version 420,2013-05-07 04:10:00,
2013-05-06 23:16:00,56.3,38.5,29.59,NW,315,0.0,0.0,51,0.00,,,0.01,WSDL version 420,2013-05-07 04:16:00,
2013-05-06 23:22:00,56.2,38.0,29.59,NW,315,0.0,0.0,50,0.00,,,0.01,WSDL version 420,2013-05-07 04:22:00,
2013-05-06 23:28:00,55.9,37.6,29.59,NW,315,0.0,0.0,50,0.00,,,0.01,WSDL version 420,2013-05-07 04:28:00,
2013-05-06 23:34:00,55.8,37.5,29.59,NW,315,0.0,0.0,51,0.00,,,0.01,WSDL version 420,2013-05-07 04:34:00,
2013-05-06 23:40:00,55.7,38.2,29.59,NW,315,0.0,0.0,51,0.00,,,0.01,WSDL version 420,2013-05-07 04:40:00,
2013-05-06 23:46:00,55.6,38.0,29.59,NW,315,0.0,0.0,51,0.00,,,0.01,WSDL version 420,2013-05-07 04:46:00,
2013-05-06 23:52:00,55.8,38.5,29.59,NW,315,0.0,0.0,53,0.00,,,0.01,WSDL version 420,2013-05-07 04:52:00,
2013-05-06 23:58:00,55.9,39.1,29.59,NW,315,0.0,0.0,53,0.00,,,0.01,WSDL version 420,2013-05-07 04:58:00,